Tracking 34352 objects as of 8-Jun-2026
HD Live streaming from Space Station
objects crossing your sky now

RTU MIREA 1

Track RTU MIREA 1 now!
10-day predictions
RTU MIREA 1 is classified as:


NORAD ID: 61785
Int'l Code: 2024-199BC
Perigee: 390.6 km
Apogee: 398.2 km
Inclination: 97.3 °
Period: 92.3 minutes
Semi major axis: 6765 km
RCS: Unknown
Launch date: November 4, 2024
Source: Commonwealth of Independent States (former USSR) (CIS)
Launch site: VOSTOCHNY COSMODROME (VOSTO)

Uplink (MHz):
Downlink (MHz): 436.200
Beacon (MHz): 436.200
Mode: 9600bps GFSK CW
Call sign: RS51S
Status: Active

Your satellite tracking list
Your tracking list is empty




NASA's NSSDC Master Catalog

Two Line Element Set (TLE):
1 61785U 24199BC  26159.49209706  .00057056  00000-0  69978-3 0  9997
2 61785  97.2948  35.9672 0005669 315.4315  44.6486 15.60140521133114
Source of the keplerian elements: AFSPC